Location: Asbacherhof
(48.8543°N, 10.7903°E)
Time: 23:30:45
(UTC+00:00)

NOSS 2-2 (D) - Pass Details

Date: 26 May 2022
Orbit: 437 x 1764 km, 63.3° (Epoch: 11 June)

Event Time Altitude Azimuth Distance (km) Brightness Sun altitude
Rises 23:59:31 0° 316° (NW) 2,968 7.6 -19.3°
Reaches altitude 10° 00:01:31 10° 314° (NW) 2,192 6.8 -19.3°
Maximum altitude 00:06:30 71° 232° (SW) 939 4.2 -19.1°
Enters shadow 00:11:38 19° 152° (SSE) 2,355 6.1 -18.9°
